• In Portugal
  • List of Countries
  • For 7 days
  • Water Temperature
  • Satellite Maps
  • Weather Map
  • Weather Widgets
  • user-avatar
    Login

    Hourly Weather Ulegej

    Today, 20 July, Friday

    Time Temperature Precipitation Wind Pressure Humidity
    00:00 +11°C° 0 mm 3 mps 614 mmHg 63%
    01:00 +10°C° 0 mm 2 mps 614 mmHg 64%
    02:00 +10°C° 0 mm 2 mps 614 mmHg 65%
    03:00 +10°C° 0 mm 2 mps 613 mmHg 67%
    04:00 +10°C° 0 mm 2 mps 614 mmHg 66%
    05:00 +10°C° 0 mm 2 mps 614 mmHg 65%
    06:00 +10°C° 0 mm 2 mps 614 mmHg 64%
    07:00 +11°C° 0 mm 3 mps 614 mmHg 61%
    08:00 +12°C° 0 mm 3 mps 614 mmHg 58%
    09:00 +13°C° 0 mm 3 mps 614 mmHg 55%
    10:00 +14°C° 0 mm 3 mps 615 mmHg 52%
    11:00 +16°C° 0 mm 3 mps 615 mmHg 49%
    12:00 +17°C° 0 mm 3 mps 615 mmHg 45%
    13:00 +18°C° 0 mm 3 mps 616 mmHg 44%
    14:00 +18°C° 0 mm 3 mps 616 mmHg 44%
    15:00 +19°C° 0 mm 3 mps 616 mmHg 43%
    16:00 +19°C° 0 mm 3 mps 616 mmHg 43%
    17:00 +19°C° 0 mm 3 mps 616 mmHg 44%
    18:00 +18°C° 0 mm 3 mps 616 mmHg 47%
    19:00 +17°C° 0 mm 2 mps 616 mmHg 50%
    20:00 +16°C° 0 mm 2 mps 616 mmHg 54%
    21:00 +15°C° 0 mm 1 mps 616 mmHg 57%
    22:00 +15°C° 0 mm 1 mps 616 mmHg 60%
    23:00 +14°C° 0 mm 1 mps 616 mmHg 63%

    Tomorrow, 21 July, Saturday

    Time Temperature Precipitation Wind Pressure Humidity
    00:00 +14°C° 0 mm 1 mps 616 mmHg 66%
    01:00 +12°C° 0 mm 0 mps 615 mmHg 67%
    02:00 +12°C° 0 mm 0 mps 615 mmHg 69%
    03:00 +11°C° 0 mm 0 mps 615 mmHg 71%
    04:00 +13°C° 0 mm 1 mps 615 mmHg 68%
    05:00 +13°C° 0 mm 1 mps 615 mmHg 66%
    06:00 +14°C° 0 mm 1 mps 615 mmHg 63%
    07:00 +15°C° 0 mm 1 mps 615 mmHg 59%
    08:00 +16°C° 0 mm 1 mps 616 mmHg 55%
    09:00 +18°C° 0 mm 1 mps 616 mmHg 51%
    10:00 +18°C° 0.1 mm 2 mps 616 mmHg 48%
    11:00 +19°C° 0.1 mm 2 mps 616 mmHg 45%
    12:00 +20°C° 0.1 mm 2 mps 616 mmHg 42%
    13:00 +20°C° 0.2 mm 2 mps 616 mmHg 40%
    14:00 +21°C° 0.2 mm 3 mps 616 mmHg 39%
    15:00 +21°C° 0.2 mm 3 mps 616 mmHg 37%
    16:00 +21°C° 0.5 mm 3 mps 616 mmHg 39%
    17:00 +21°C° 0.5 mm 3 mps 616 mmHg 41%
    18:00 +20°C° 0.5 mm 4 mps 616 mmHg 43%
    19:00 +19°C° 0.4 mm 3 mps 616 mmHg 48%
    20:00 +18°C° 0.4 mm 2 mps 616 mmHg 52%
    21:00 +18°C° 0.4 mm 1 mps 616 mmHg 57%
    22:00 +18°C° 0.1 mm 1 mps 616 mmHg 59%
    23:00 +16°C° 0.1 mm 1 mps 616 mmHg 61%

    Day after tomorrow, 22 July, Sunday

    Time Temperature Precipitation Wind Pressure Humidity
    00:00 +15°C° 0.1 mm 1 mps 616 mmHg 64%
    01:00 +15°C° 0 mm 1 mps 615 mmHg 66%
    02:00 +14°C° 0 mm 1 mps 615 mmHg 68%
    03:00 +13°C° 0 mm 1 mps 615 mmHg 69%
    04:00 +14°C° 0 mm 1 mps 615 mmHg 67%
    05:00 +14°C° 0 mm 1 mps 615 mmHg 64%
    06:00 +15°C° 0 mm 1 mps 615 mmHg 62%
    07:00 +16°C° 0 mm 1 mps 615 mmHg 56%
    08:00 +17°C° 0 mm 2 mps 616 mmHg 51%
    09:00 +19°C° 0 mm 2 mps 616 mmHg 46%
    10:00 +20°C° 0 mm 2 mps 616 mmHg 42%
    11:00 +21°C° 0 mm 2 mps 616 mmHg 37%
    12:00 +22°C° 0 mm 3 mps 616 mmHg 33%
    13:00 +24°C° 0 mm 3 mps 616 mmHg 32%
    14:00 +25°C° 0 mm 3 mps 616 mmHg 30%
    15:00 +25°C° 0 mm 4 mps 616 mmHg 29%
    16:00 +25°C° 0 mm 4 mps 616 mmHg 31%
    17:00 +25°C° 0 mm 4 mps 616 mmHg 32%
    18:00 +23°C° 0 mm 4 mps 616 mmHg 34%
    19:00 +22°C° 0 mm 4 mps 616 mmHg 38%
    20:00 +20°C° 0 mm 4 mps 616 mmHg 43%
    21:00 +19°C° 0 mm 3 mps 616 mmHg 48%
    22:00 +18°C° 0 mm 3 mps 615 mmHg 51%
    23:00 +17°C° 0 mm 3 mps 615 mmHg 53%

    23 July, Monday

    Time Temperature Precipitation Wind Pressure Humidity
    00:00 +17°C° 0 mm 2 mps 615 mmHg 56%
    01:00 +16°C° 0 mm 2 mps 615 mmHg 57%
    02:00 +16°C° 0 mm 2 mps 614 mmHg 59%
    03:00 +15°C° 0 mm 2 mps 614 mmHg 61%
    04:00 +15°C° 0 mm 2 mps 614 mmHg 60%
    05:00 +16°C° 0 mm 2 mps 614 mmHg 58%
    06:00 +16°C° 0 mm 2 mps 615 mmHg 57%
    07:00 +18°C° 0 mm 2 mps 615 mmHg 51%
    08:00 +19°C° 0 mm 2 mps 615 mmHg 45%
    09:00 +20°C° 0 mm 2 mps 615 mmHg 39%
    10:00 +22°C° 0 mm 3 mps 615 mmHg 35%
    11:00 +24°C° 0 mm 3 mps 615 mmHg 32%
    12:00 +25°C° 0 mm 4 mps 615 mmHg 29%
    13:00 +26°C° 0 mm 4 mps 615 mmHg 28%
    14:00 +26°C° 0 mm 5 mps 615 mmHg 28%
    15:00 +26°C° 0 mm 6 mps 614 mmHg 28%
    16:00 +26°C° 0 mm 6 mps 614 mmHg 29%
    17:00 +24°C° 0 mm 7 mps 614 mmHg 31%
    18:00 +23°C° 0 mm 7 mps 614 mmHg 33%
    19:00 +22°C° 0 mm 6 mps 614 mmHg 37%
    20:00 +21°C° 0 mm 5 mps 614 mmHg 41%
    21:00 +19°C° 0 mm 4 mps 614 mmHg 44%
    22:00 +19°C° 0 mm 3 mps 613 mmHg 47%
    23:00 +18°C° 0 mm 3 mps 613 mmHg 49%

    24 July, Tuesday

    Time Temperature Precipitation Wind Pressure Humidity
    00:00 +17°C° 0 mm 2 mps 612 mmHg 51%
    01:00 +17°C° 0 mm 3 mps 612 mmHg 52%
    02:00 +16°C° 0 mm 3 mps 612 mmHg 53%
    03:00 +16°C° 0 mm 3 mps 611 mmHg 54%
    04:00 +16°C° 0 mm 3 mps 611 mmHg 53%
    05:00 +17°C° 0 mm 3 mps 611 mmHg 52%
    06:00 +17°C° 0 mm 3 mps 611 mmHg 51%
    07:00 +19°C° 0 mm 5 mps 612 mmHg 46%
    08:00 +20°C° 0 mm 6 mps 612 mmHg 41%
    09:00 +22°C° 0 mm 8 mps 613 mmHg 36%
    10:00 +22°C° 0 mm 9 mps 613 mmHg 36%
    11:00 +23°C° 0 mm 10 mps 613 mmHg 35%
    12:00 +23°C° 0 mm 12 mps 613 mmHg 34%
    13:00 +23°C° 0 mm 11 mps 613 mmHg 34%
    14:00 +23°C° 0 mm 11 mps 613 mmHg 33%
    15:00 +23°C° 0 mm 11 mps 613 mmHg 32%
    16:00 +22°C° 0 mm 10 mps 613 mmHg 32%
    17:00 +22°C° 0 mm 10 mps 613 mmHg 31%
    18:00 +21°C° 0 mm 9 mps 613 mmHg 31%
    19:00 +18°C° 0 mm 8 mps 613 mmHg 33%
    20:00 +17°C° 0 mm 6 mps 613 mmHg 36%
    21:00 +15°C° 0 mm 5 mps 613 mmHg 39%
    22:00 +14°C° 0 mm 4 mps 613 mmHg 42%
    23:00 +13°C° 0 mm 4 mps 612 mmHg 46%

    25 July, Wednesday

    Time Temperature Precipitation Wind Pressure Humidity
    00:00 +12°C° 0 mm 3 mps 612 mmHg 50%
    01:00 +12°C° 0 mm 3 mps 612 mmHg 52%
    02:00 +11°C° 0 mm 3 mps 612 mmHg 54%
    03:00 +10°C° 0 mm 3 mps 612 mmHg 57%
    04:00 +11°C° 0 mm 3 mps 612 mmHg 56%
    05:00 +11°C° 0 mm 3 mps 612 mmHg 55%
    06:00 +12°C° 0 mm 2 mps 613 mmHg 55%
    07:00 +13°C° 0 mm 3 mps 613 mmHg 47%
    08:00 +14°C° 0 mm 4 mps 614 mmHg 39%
    09:00 +17°C° 0 mm 4 mps 614 mmHg 32%
    10:00 +17°C° 0 mm 5 mps 614 mmHg 29%
    11:00 +19°C° 0 mm 6 mps 615 mmHg 26%
    12:00 +21°C° 0 mm 7 mps 615 mmHg 24%
    13:00 +21°C° 0 mm 7 mps 615 mmHg 23%
    14:00 +21°C° 0 mm 8 mps 615 mmHg 23%
    15:00 +22°C° 0 mm 8 mps 614 mmHg 22%
    16:00 +21°C° 0 mm 8 mps 614 mmHg 24%
    17:00 +20°C° 0 mm 8 mps 614 mmHg 26%
    18:00 +18°C° 0 mm 7 mps 614 mmHg 27%
    19:00 +17°C° 0 mm 7 mps 614 mmHg 31%
    20:00 +15°C° 0 mm 6 mps 614 mmHg 35%
    21:00 +14°C° 0 mm 5 mps 614 mmHg 39%
    22:00 +13°C° 0 mm 4 mps 614 mmHg 41%
    23:00 +12°C° 0 mm 4 mps 614 mmHg 44%
    Show more